Language: 


Des rapports , des résumés tant et plus, au choix de chacun....


Données statistiques de la station
Quotidien Rapport Juin 27, 2017 Unités:  Anglais    Métrique   les deux
« Précédent Jour
Suivant Jour »
Quotidien Hebdomadaire Mensuel Annuel Actuel
  Haut: Bas: Moyen:
Température: 82.8 °F 55.9 °F 66.7 °F
Pt de rosée: 62.6 °F 48.2 °F 57.4 °F
Humidité: 88 % 43 % 72 %
Vitesse du vent: 12.1 mph 0 mph 3.8 mph
Rafales: 12.1 mph - -
Vent:- - East
Pression: 29.9 in 29.5 in -
Précipitation: 0 in    
Historical Graphs
 
 
Données statistiques pour Juin 27, 2017
Heure Température Point de rosée Pression Vent Vitesse du vent Refales Humidité Pluie (taux horaire)
00:01 59.4 °F 50 °F 29.9 in NE 5.6 mph 8.1 mph 69 % 0 in
00:06 59.4 °F 50 °F 29.9 in NNE 4.7 mph 8.1 mph 69 % 0 in
00:11 59.2 °F 48.2 °F 29.9 in NE 7.4 mph 7.6 mph 69 % 0 in
00:16 59.2 °F 50 °F 29.9 in North 4.3 mph 8.1 mph 70 % 0 in
00:21 59 °F 50 °F 29.9 in North 5.4 mph 8.1 mph 70 % 0 in
00:26 59 °F 50 °F 29.9 in NE 7.2 mph 7.2 mph 70 % 0 in
00:31 58.8 °F 50 °F 29.9 in NE 4 mph 7.4 mph 70 % 0 in
00:36 58.8 °F 50 °F 29.9 in NE 5.4 mph 7.4 mph 71 % 0 in
00:41 58.5 °F 48.2 °F 29.9 in NNE 4 mph 6.7 mph 70 % 0 in
00:46 58.1 °F 50 °F 29.9 in North 5.6 mph 6 mph 71 % 0 in
00:51 57.9 °F 50 °F 29.9 in NE 4.3 mph 6 mph 72 % 0 in
00:56 57.7 °F 50 °F 29.9 in ENE 6.3 mph 6.5 mph 72 % 0 in
01:01 57.7 °F 50 °F 29.9 in NE 4.3 mph 7.4 mph 73 % 0 in
01:06 57.7 °F 50 °F 29.9 in NE 5.8 mph 7.4 mph 73 % 0 in
01:11 57.6 °F 50 °F 29.9 in NE 6 mph 7.2 mph 73 % 0 in
01:16 57.6 °F 50 °F 29.9 in North 6.3 mph 6.5 mph 74 % 0 in
01:21 57.6 °F 50 °F 29.9 in NE 2.9 mph 7.6 mph 74 % 0 in
01:26 57.6 °F 50 °F 29.9 in NE 3.8 mph 8.5 mph 74 % 0 in
01:31 57.7 °F 50 °F 29.9 in ENE 6.5 mph 8.5 mph 74 % 0 in
01:36 57.9 °F 50 °F 29.9 in NE 4 mph 8.7 mph 74 % 0 in
01:41 57.9 °F 50 °F 29.9 in NE 5.4 mph 9.2 mph 75 % 0 in
01:46 57.7 °F 50 °F 29.9 in NE 9.8 mph 9.8 mph 75 % 0 in
01:51 57.9 °F 50 °F 29.9 in NE 6.3 mph 9.8 mph 76 % 0 in
01:53 57.9 °F 50 °F 29.9 in NE 5.8 mph 9.8 mph 76 % 0 in
01:58 57.9 °F 51.8 °F 29.9 in ENE 6 mph 9.2 mph 77 % 0 in
02:03 57.7 °F 50 °F 29.9 in NE 5.6 mph 8.5 mph 76 % 0 in
02:08 57.7 °F 51.8 °F 29.9 in NE 4.5 mph 8.5 mph 77 % 0 in
02:13 57.7 °F 51.8 °F 29.9 in NNE 4.9 mph 8.5 mph 77 % 0 in
02:18 57.7 °F 51.8 °F 29.9 in NE 5.6 mph 7.4 mph 77 % 0 in
02:23 57.7 °F 51.8 °F 29.9 in ENE 4.9 mph 6 mph 77 % 0 in
02:28 57.7 °F 51.8 °F 29.9 in ENE 6.5 mph 8.5 mph 78 % 0 in
02:33 57.9 °F 51.8 °F 29.9 in ENE 2.7 mph 8.5 mph 78 % 0 in
02:38 57.9 °F 51.8 °F 29.9 in NE 4.3 mph 6.9 mph 78 % 0 in
02:43 57.9 °F 51.8 °F 29.9 in ENE 3.4 mph 6.7 mph 79 % 0 in
02:48 57.9 °F 51.8 °F 29.9 in ENE 4.7 mph 8.5 mph 79 % 0 in
02:53 57.9 °F 51.8 °F 29.9 in NE 4.9 mph 8.5 mph 80 % 0 in
02:58 57.9 °F 51.8 °F 29.9 in NE 4 mph 8.7 mph 79 % 0 in
03:03 57.9 °F 51.8 °F 29.9 in NE 4.9 mph 8.7 mph 80 % 0 in
03:08 57.9 °F 51.8 °F 29.9 in NE 5.4 mph 7.4 mph 80 % 0 in
03:13 57.9 °F 51.8 °F 29.9 in NNE 2.5 mph 7.4 mph 79 % 0 in
03:19 57.7 °F 51.8 °F 29.9 in Calm   7.8 mph 80 % 0 in
03:24 57.6 °F 51.8 °F 29.9 in ENE 4.3 mph 7.8 mph 80 % 0 in
03:29 57.2 °F 51.8 °F 29.9 in Calm   4.7 mph 80 % 0 in
03:34 56.8 °F 51.8 °F 29.8 in Calm   4.7 mph 81 % 0 in
03:39 56.8 °F 51.8 °F 29.8 in Calm   5.4 mph 81 % 0 in
03:44 56.5 °F 51.8 °F 29.8 in NE 4.3 mph 5.4 mph 81 % 0 in
03:49 56.7 °F 51.8 °F 29.9 in Calm   5.6 mph 82 % 0 in
03:52 56.5 °F 51.8 °F 29.9 in Calm   5.6 mph 82 % 0 in
03:57 56.5 °F 51.8 °F 29.9 in Calm   3.8 mph 83 % 0 in
04:02 56.3 °F 51.8 °F 29.9 in NE 4 mph 4.9 mph 83 % 0 in
04:07 56.5 °F 51.8 °F 29.9 in Calm   4.9 mph 83 % 0 in
04:12 56.3 °F 51.8 °F 29.9 in Calm   4.7 mph 83 % 0 in
04:17 56.1 °F 51.8 °F 29.9 in Calm   3.1 mph 83 % 0 in
04:22 56.1 °F 51.8 °F 29.9 in Calm   3.1 mph 83 % 0 in
04:27 56.1 °F 51.8 °F 29.9 in Calm   3.1 mph 84 % 0 in
04:32 55.9 °F 51.8 °F 29.8 in Calm   3.1 mph 84 % 0 in
04:37 56.1 °F 51.8 °F 29.8 in North 1.6 mph 6.3 mph 84 % 0 in
04:43 56.1 °F 51.8 °F 29.8 in Calm   6.3 mph 85 % 0 in
04:48 56.1 °F 51.8 °F 29.8 in Calm   5.8 mph 85 % 0 in
04:53 56.3 °F 53.6 °F 29.8 in ENE 2.2 mph 6.3 mph 86 % 0 in
04:58 56.7 °F 53.6 °F 29.8 in ENE 7.2 mph 7.2 mph 86 % 0 in
05:03 56.8 °F 53.6 °F 29.8 in NE 5.6 mph 7.4 mph 86 % 0 in
05:05 56.8 °F 53.6 °F 29.8 in NE 6 mph 7.6 mph 85 % 0 in
05:10 57.2 °F 53.6 °F 29.8 in NE 6.3 mph 7.8 mph 85 % 0 in
05:15 57.2 °F 53.6 °F 29.8 in NE 6.5 mph 7.8 mph 85 % 0 in
05:20 57.2 °F 53.6 °F 29.8 in NE 3.8 mph 6.5 mph 85 % 0 in
05:25 57 °F 53.6 °F 29.8 in NE 4 mph 6.5 mph 85 % 0 in
05:31 56.8 °F 51.8 °F 29.8 in NE 1.1 mph 4.9 mph 84 % 0 in
05:36 56.7 °F 51.8 °F 29.8 in North 4.7 mph 5.8 mph 84 % 0 in
05:41 56.5 °F 53.6 °F 29.8 in NE 4.9 mph 5.8 mph 85 % 0 in
05:46 56.5 °F 53.6 °F 29.8 in NNE 3.6 mph 5.6 mph 85 % 0 in
05:51 56.3 °F 53.6 °F 29.8 in Calm   5.6 mph 85 % 0 in
05:56 56.3 °F 53.6 °F 29.8 in NNE 5.6 mph 5.8 mph 85 % 0 in
06:01 56.3 °F 53.6 °F 29.8 in NNE 4 mph 6.5 mph 86 % 0 in
06:06 56.3 °F 53.6 °F 29.8 in NNE 3.1 mph 6.5 mph 86 % 0 in
06:11 56.3 °F 53.6 °F 29.8 in North 4.3 mph 6.3 mph 86 % 0 in
06:16 56.3 °F 53.6 °F 29.8 in NE 5.4 mph 5.8 mph 86 % 0 in
06:21 56.5 °F 53.6 °F 29.8 in Calm   5.6 mph 86 % 0 in
06:23 56.7 °F 53.6 °F 29.8 in ENE 4.7 mph 5.6 mph 86 % 0 in
06:28 56.7 °F 53.6 °F 29.8 in NE 3.6 mph 5.6 mph 86 % 0 in
06:33 56.8 °F 53.6 °F 29.8 in NNE 1.3 mph 6.5 mph 86 % 0 in
06:38 57 °F 53.6 °F 29.8 in ENE 1.6 mph 6.5 mph 86 % 0 in
06:43 57.2 °F 53.6 °F 29.8 in Calm   4.9 mph 85 % 0 in
06:48 57.4 °F 53.6 °F 29.8 in Calm   4.9 mph 84 % 0 in
06:53 57.4 °F 53.6 °F 29.8 in Calm   3.8 mph 84 % 0 in
06:58 57.6 °F 53.6 °F 29.8 in Calm   3.8 mph 84 % 0 in
07:03 57.7 °F 53.6 °F 29.8 in NE 5.4 mph 5.4 mph 84 % 0 in
07:08 58.1 °F 53.6 °F 29.8 in Calm   5.4 mph 84 % 0 in
07:09 58.3 °F 53.6 °F 29.8 in ENE 1.1 mph 5.4 mph 84 % 0 in
07:14 58.5 °F 53.6 °F 29.8 in Calm   4.9 mph 84 % 0 in
07:19 58.8 °F 53.6 °F 29.8 in Calm   4.9 mph 83 % 0 in
07:24 58.8 °F 53.6 °F 29.8 in NE 4.7 mph 5.8 mph 83 % 0 in
07:29 59 °F 53.6 °F 29.8 in NE 5.4 mph 5.8 mph 81 % 0 in
07:34 59.4 °F 53.6 °F 29.8 in ENE 0.9 mph 5.8 mph 81 % 0 in
07:39 59.7 °F 53.6 °F 29.8 in ENE 2.7 mph 5.8 mph 81 % 0 in
07:44 60.3 °F 55.4 °F 29.8 in Calm   5.8 mph 80 % 0 in
07:49 60.6 °F 55.4 °F 29.8 in East 7.2 mph 7.2 mph 79 % 0 in
07:54 61 °F 53.6 °F 29.8 in ENE 5.4 mph 7.2 mph 78 % 0 in
07:59 61.2 °F 55.4 °F 29.8 in ENE 2.9 mph 7.2 mph 77 % 0 in
08:04 61.3 °F 55.4 °F 29.8 in NE 4 mph 5.8 mph 77 % 0 in
08:09 61.5 °F 53.6 °F 29.8 in NE 4 mph 5.4 mph 76 % 0 in
08:14 61.5 °F 53.6 °F 29.8 in East 2.7 mph 5.4 mph 76 % 0 in
08:19 61.7 °F 55.4 °F 29.8 in Calm   5.4 mph 75 % 0 in
08:24 61.9 °F 55.4 °F 29.8 in East 4.3 mph 5.4 mph 75 % 0 in
08:29 62.1 °F 55.4 °F 29.8 in ESE 0.9 mph 6 mph 75 % 0 in
08:34 62.4 °F 55.4 °F 29.8 in Calm   6 mph 74 % 0 in
08:39 62.8 °F 55.4 °F 29.8 in East 3.4 mph 5.4 mph 74 % 0 in
08:44 63 °F 55.4 °F 29.8 in East 5.6 mph 5.6 mph 73 % 0 in
08:50 63.3 °F 55.4 °F 29.8 in ESE 4.9 mph 6.7 mph 73 % 0 in
08:55 64 °F 55.4 °F 29.8 in East 0.9 mph 6.7 mph 72 % 0 in
09:00 64.4 °F 55.4 °F 29.8 in Calm   6.3 mph 70 % 0 in
09:05 65.7 °F 55.4 °F 29.8 in East 3.1 mph 6.3 mph 71 % 0 in
09:10 66 °F 55.4 °F 29.8 in East 4.9 mph 5.8 mph 69 % 0 in
09:15 66 °F 55.4 °F 29.8 in East 1.6 mph 6.5 mph 69 % 0 in
09:21 65.8 °F 55.4 °F 29.8 in Calm   6.5 mph 67 % 0 in
09:26 66 °F 55.4 °F 29.8 in ESE 4.7 mph 7.8 mph 67 % 0 in
09:31 66.2 °F 55.4 °F 29.8 in ENE 1.1 mph 7.8 mph 67 % 0 in
09:36 66.2 °F 55.4 °F 29.8 in ENE 5.8 mph 5.8 mph 67 % 0 in
09:41 66.2 °F 55.4 °F 29.8 in ESE 4.3 mph 7.4 mph 67 % 0 in
09:46 66.4 °F 55.4 °F 29.8 in ENE 4.3 mph 7.6 mph 67 % 0 in
09:51 66.6 °F 55.4 °F 29.8 in ESE 4 mph 7.6 mph 67 % 0 in
09:56 66.9 °F 55.4 °F 29.8 in East 4 mph 6.3 mph 67 % 0 in
10:01 66.9 °F 55.4 °F 29.8 in Calm   6 mph 67 % 0 in
10:06 67.8 °F 55.4 °F 29.8 in NE 1.6 mph 7.8 mph 66 % 0 in
10:11 68.4 °F 57.2 °F 29.8 in ENE 3.8 mph 7.8 mph 66 % 0 in
10:16 68.7 °F 57.2 °F 29.8 in ESE 5.4 mph 6.5 mph 66 % 0 in
10:21 68.9 °F 57.2 °F 29.8 in ENE 4 mph 8.1 mph 65 % 0 in
10:26 69.1 °F 57.2 °F 29.8 in East 3.6 mph 8.1 mph 65 % 0 in
10:32 69.1 °F 57.2 °F 29.7 in Calm   7.2 mph 65 % 0 in
10:42 69.1 °F 57.2 °F 29.7 in Calm   7.2 mph 65 % 0 in
10:47 69.1 °F 57.2 °F 29.7 in ESE 1.3 mph 7.2 mph 65 % 0 in
10:52 69.1 °F 57.2 °F 29.7 in Calm   7.4 mph 65 % 0 in
10:57 69.1 °F 57.2 °F 29.7 in East 1.1 mph 7.4 mph 65 % 0 in
11:02 69.1 °F 57.2 °F 29.7 in ESE 2.9 mph 6.7 mph 65 % 0 in
11:07 70.7 °F 57.2 °F 29.7 in Calm   3.8 mph 62 % 0 in
11:12 70.7 °F 57.2 °F 29.7 in ENE 3.8 mph 5.6 mph 62 % 0 in
11:17 70.7 °F 57.2 °F 29.7 in NE 2.2 mph 5.6 mph 62 % 0 in
11:22 70.7 °F 57.2 °F 29.7 in East 0.9 mph 5.4 mph 62 % 0 in
11:27 70.7 °F 57.2 °F 29.7 in Calm   5.4 mph 62 % 0 in
11:32 70.7 °F 57.2 °F 29.7 in Calm   4.7 mph 62 % 0 in
11:37 70.7 °F 57.2 °F 29.7 in Calm   6.3 mph 62 % 0 in
11:42 70.7 °F 57.2 °F 29.7 in ENE 3.1 mph 6.3 mph 62 % 0 in
11:47 70.7 °F 57.2 °F 29.7 in NE 7.6 mph 7.6 mph 62 % 0 in
11:52 70.7 °F 57.2 °F 29.7 in ENE 4.7 mph 7.6 mph 62 % 0 in
11:57 70.7 °F 57.2 °F 29.7 in ESE 5.8 mph 6.3 mph 62 % 0 in
12:02 70.7 °F 57.2 °F 29.7 in East 3.4 mph 6.3 mph 62 % 0 in
12:07 75.6 °F 60.8 °F 29.7 in ENE 4.9 mph 6.5 mph 58 % 0 in
12:12 75.6 °F 60.8 °F 29.7 in Calm   6.5 mph 58 % 0 in
12:17 75.6 °F 60.8 °F 29.7 in NE 6 mph 6.5 mph 58 % 0 in
12:22 75.6 °F 60.8 °F 29.7 in East 3.8 mph 7.4 mph 58 % 0 in
12:27 75.6 °F 60.8 °F 29.7 in East 0.9 mph 7.4 mph 58 % 0 in
12:33 75.6 °F 60.8 °F 29.7 in ENE 3.1 mph 7.2 mph 58 % 0 in
12:38 75.6 °F 60.8 °F 29.7 in East 2.7 mph 8.1 mph 58 % 0 in
12:43 75.6 °F 60.8 °F 29.7 in East 5.6 mph 8.7 mph 58 % 0 in
12:48 78.8 °F 57.2 °F 29.7 in SE 5.4 mph 8.7 mph 48 % 0 in
12:53 80.1 °F 60.8 °F 29.7 in NE 3.6 mph 8.7 mph 50 % 0 in
12:58 80.2 °F 59 °F 29.7 in East 3.6 mph 8.1 mph 48 % 0 in
13:03 80.8 °F 59 °F 29.7 in ESE 7.8 mph 7.8 mph 48 % 0 in
13:08 80.8 °F 59 °F 29.7 in East 3.8 mph 8.1 mph 48 % 0 in
13:13 80.8 °F 59 °F 29.7 in NE 6.5 mph 8.1 mph 48 % 0 in
13:18 80.8 °F 59 °F 29.7 in NE 4 mph 8.1 mph 48 % 0 in
13:23 82.4 °F 60.8 °F 29.7 in Calm   8.7 mph 46 % 0 in
13:24 82.8 °F 60.8 °F 29.7 in East 3.8 mph 8.7 mph 45 % 0 in
13:29 82.6 °F 59 °F 29.7 in North 6.5 mph 9.6 mph 44 % 0 in
13:34 82.8 °F 59 °F 29.7 in SE 7.4 mph 9.6 mph 43 % 0 in
13:39 82.8 °F 59 °F 29.7 in East 5.6 mph 9.4 mph 44 % 0 in
13:44 82.8 °F 59 °F 29.7 in East 6.5 mph 8.7 mph 44 % 0 in
13:50 80.6 °F 59 °F 29.7 in SE 9.2 mph 9.2 mph 46 % 0 in
13:55 79.7 °F 59 °F 29.7 in SE 3.1 mph 10.5 mph 47 % 0 in
14:00 79.2 °F 59 °F 29.7 in ENE 8.5 mph 10.5 mph 48 % 0 in
14:05 78.8 °F 59 °F 29.7 in SSE 8.5 mph 9.2 mph 50 % 0 in
14:10 78.4 °F 59 °F 29.7 in South 2 mph 10.7 mph 50 % 0 in
14:15 78.1 °F 59 °F 29.7 in East 6.7 mph 10.7 mph 51 % 0 in
14:20 77.4 °F 59 °F 29.7 in ESE 6.3 mph 8.5 mph 53 % 0 in
14:25 76.8 °F 59 °F 29.7 in ESE 6.3 mph 8.5 mph 54 % 0 in
14:30 76.5 °F 59 °F 29.7 in NE 5.4 mph 8.7 mph 55 % 0 in
14:35 76.3 °F 59 °F 29.7 in ESE 6 mph 9.6 mph 56 % 0 in
14:40 76.3 °F 60.8 °F 29.7 in ESE 2.2 mph 9.6 mph 58 % 0 in
14:45 76.6 °F 60.8 °F 29.7 in East 6.7 mph 7.6 mph 57 % 0 in
14:50 77.7 °F 62.6 °F 29.7 in Calm   7.2 mph 58 % 0 in
14:55 78.8 °F 62.6 °F 29.7 in Calm   6 mph 57 % 0 in
15:00 79.3 °F 62.6 °F 29.7 in ESE 1.6 mph 4.3 mph 56 % 0 in
15:05 80.2 °F 62.6 °F 29.7 in ESE 12.1 mph 12.1 mph 55 % 0 in
15:10 80.2 °F 62.6 °F 29.7 in SSE 6 mph 12.1 mph 55 % 0 in
15:15 80.2 °F 62.6 °F 29.7 in ESE 5.4 mph 10.1 mph 54 % 0 in
15:20 80.2 °F 62.6 °F 29.7 in SSE 3.8 mph 8.7 mph 54 % 0 in
15:25 79.5 °F 60.8 °F 29.7 in South 6 mph 8.7 mph 53 % 0 in
15:30 78.8 °F 60.8 °F 29.7 in South 0.9 mph 8.1 mph 54 % 0 in
15:35 78.4 °F 60.8 °F 29.7 in SSE 5.6 mph 8.1 mph 55 % 0 in
15:40 77.2 °F 60.8 °F 29.7 in ESE 6 mph 8.1 mph 56 % 0 in
15:45 76.6 °F 60.8 °F 29.7 in SE 6 mph 8.1 mph 57 % 0 in
15:50 76.1 °F 60.8 °F 29.7 in ESE 4 mph 8.1 mph 59 % 0 in
15:55 75.9 °F 60.8 °F 29.7 in ESE 8.5 mph 8.5 mph 60 % 0 in
16:01 75.6 °F 60.8 °F 29.6 in ENE 2.5 mph 8.5 mph 60 % 0 in
16:06 75.4 °F 60.8 °F 29.6 in ESE 4.3 mph 8.5 mph 61 % 0 in
16:11 75 °F 60.8 °F 29.6 in ENE 1.6 mph 7.6 mph 62 % 0 in
16:16 74.3 °F 60.8 °F 29.6 in East 4.9 mph 7.2 mph 63 % 0 in
16:21 73.9 °F 60.8 °F 29.6 in NE 4.7 mph 8.5 mph 64 % 0 in
16:26 73.6 °F 60.8 °F 29.6 in East 3.8 mph 8.5 mph 64 % 0 in
16:31 73.2 °F 60.8 °F 29.6 in East 5.6 mph 7.6 mph 65 % 0 in
16:36 73 °F 60.8 °F 29.6 in East 5.6 mph 7.2 mph 66 % 0 in
16:41 72.9 °F 60.8 °F 29.6 in East 5.4 mph 5.6 mph 66 % 0 in
16:46 72.9 °F 60.8 °F 29.6 in NE 6.3 mph 6.3 mph 67 % 0 in
16:51 72.7 °F 60.8 °F 29.6 in East 6.5 mph 7.2 mph 67 % 0 in
16:56 72.5 °F 62.6 °F 29.6 in East 3.8 mph 7.2 mph 68 % 0 in
17:01 72.1 °F 60.8 °F 29.6 in ESE 6 mph 7.6 mph 69 % 0 in
17:06 71.8 °F 60.8 °F 29.6 in NE 2.5 mph 8.7 mph 69 % 0 in
17:11 71.6 °F 60.8 °F 29.6 in East 4 mph 8.7 mph 69 % 0 in
17:16 71.4 °F 60.8 °F 29.6 in ESE 3.4 mph 7.8 mph 70 % 0 in
17:17 71.6 °F 60.8 °F 29.6 in ESE 3.4 mph 7.8 mph 70 % 0 in
17:22 71.6 °F 60.8 °F 29.6 in NNE 2.2 mph 7.6 mph 70 % 0 in
17:27 71.4 °F 60.8 °F 29.6 in East 3.6 mph 5.8 mph 70 % 0 in
17:32 71.4 °F 60.8 °F 29.6 in ENE 4.9 mph 6.5 mph 70 % 0 in
17:37 71.4 °F 60.8 °F 29.6 in East 3.1 mph 6.5 mph 70 % 0 in
17:42 71.6 °F 60.8 °F 29.6 in ESE 3.6 mph 5.8 mph 70 % 0 in
17:48 71.8 °F 60.8 °F 29.6 in ESE 3.8 mph 5.8 mph 70 % 0 in
17:53 72 °F 62.6 °F 29.6 in East 3.4 mph 6.5 mph 70 % 0 in
17:54 72 °F 62.6 °F 29.6 in ESE 3.1 mph 6.5 mph 70 % 0 in
17:59 72 °F 62.6 °F 29.6 in East 5.6 mph 6.5 mph 70 % 0 in
18:04 71.6 °F 60.8 °F 29.6 in NE 4 mph 6.5 mph 70 % 0 in
18:09 71.2 °F 60.8 °F 29.6 in NE 6.3 mph 8.5 mph 70 % 0 in
18:14 70.9 °F 60.8 °F 29.6 in ENE 4.5 mph 8.5 mph 70 % 0 in
18:19 70.7 °F 60.8 °F 29.6 in East 6 mph 7.6 mph 70 % 0 in
18:24 70.7 °F 60.8 °F 29.6 in ENE 4 mph 7.4 mph 71 % 0 in
18:25 70.7 °F 60.8 °F 29.6 in ENE 3.4 mph 7.4 mph 71 % 0 in
18:30 70.7 °F 60.8 °F 29.6 in NE 1.1 mph 7.2 mph 71 % 0 in
18:35 70.9 °F 60.8 °F 29.6 in ESE 6.3 mph 7.2 mph 71 % 0 in
18:40 71.1 °F 60.8 °F 29.6 in NE 3.6 mph 7.4 mph 71 % 0 in
18:45 71.2 °F 60.8 °F 29.6 in ENE 7.6 mph 7.6 mph 71 % 0 in
18:50 71.2 °F 60.8 °F 29.6 in ENE 6.3 mph 8.5 mph 71 % 0 in
18:55 71.1 °F 60.8 °F 29.6 in East 2.5 mph 8.5 mph 71 % 0 in
19:00 70.9 °F 60.8 °F 29.6 in ENE 4.9 mph 7.2 mph 71 % 0 in
19:05 71.1 °F 62.6 °F 29.6 in ESE 5.8 mph 6.7 mph 72 % 0 in
19:10 71.1 °F 60.8 °F 29.6 in East 3.4 mph 7.4 mph 71 % 0 in
19:15 70.9 °F 60.8 °F 29.6 in NE 2 mph 7.4 mph 71 % 0 in
19:20 71.1 °F 62.6 °F 29.6 in East 5.4 mph 7.2 mph 72 % 0 in
19:26 71.1 °F 60.8 °F 29.6 in ENE 0.9 mph 7.2 mph 71 % 0 in
19:31 71.2 °F 60.8 °F 29.6 in ENE 5.4 mph 7.8 mph 71 % 0 in
19:36 71.2 °F 60.8 °F 29.6 in East 3.6 mph 7.8 mph 71 % 0 in
19:39 71.2 °F 60.8 °F 29.6 in ENE 5.8 mph 7.6 mph 71 % 0 in
19:44 71.1 °F 60.8 °F 29.6 in ESE 5.6 mph 9.8 mph 71 % 0 in
19:49 70.9 °F 62.6 °F 29.6 in ENE 8.7 mph 9.8 mph 72 % 0 in
19:54 70.7 °F 62.6 °F 29.6 in ENE 9.2 mph 9.8 mph 72 % 0 in
19:55 70.7 °F 62.6 °F 29.6 in NE 3.1 mph 9.8 mph 72 % 0 in
20:00 70.3 °F 60.8 °F 29.6 in East 6 mph 9.8 mph 73 % 0 in
20:05 70.2 °F 60.8 °F 29.6 in ESE 7.4 mph 8.7 mph 73 % 0 in
20:10 70 °F 60.8 °F 29.6 in NE 8.1 mph 9.8 mph 74 % 0 in
20:15 70 °F 62.6 °F 29.6 in NE 5.6 mph 9.2 mph 75 % 0 in
20:20 69.8 °F 62.6 °F 29.6 in East 5.8 mph 8.1 mph 75 % 0 in
20:25 69.8 °F 62.6 °F 29.6 in NE 8.5 mph 8.5 mph 75 % 0 in
20:31 69.6 °F 62.6 °F 29.6 in East 5.8 mph 8.5 mph 76 % 0 in
20:35 69.6 °F 62.6 °F 29.6 in NE 6 mph 8.5 mph 77 % 0 in
20:41 69.6 °F 62.6 °F 29.6 in East 4.3 mph 8.1 mph 77 % 0 in
20:46 69.4 °F 62.6 °F 29.6 in NE 0.9 mph 8.5 mph 77 % 0 in
20:51 69.3 °F 62.6 °F 29.6 in ENE 5.6 mph 8.7 mph 77 % 0 in
20:56 69.1 °F 62.6 °F 29.6 in East 4.7 mph 8.7 mph 77 % 0 in
21:01 68.9 °F 62.6 °F 29.6 in ENE 4.3 mph 8.1 mph 78 % 0 in
21:06 68.9 °F 62.6 °F 29.6 in NE 4.9 mph 6.5 mph 78 % 0 in
21:11 68.7 °F 60.8 °F 29.6 in NE 6 mph 7.2 mph 78 % 0 in
21:16 68.7 °F 60.8 °F 29.6 in ENE 4.7 mph 7.4 mph 78 % 0 in
21:21 68.5 °F 60.8 °F 29.6 in NNE 6.3 mph 7.4 mph 78 % 0 in
21:26 68.5 °F 60.8 °F 29.6 in Calm   6.5 mph 78 % 0 in
21:31 68.4 °F 62.6 °F 29.6 in NE 6.3 mph 7.4 mph 79 % 0 in
21:36 68.4 °F 62.6 °F 29.6 in East 6.3 mph 7.4 mph 79 % 0 in
21:41 68.4 °F 62.6 °F 29.6 in ENE 4 mph 6.3 mph 79 % 0 in
21:46 68.4 °F 62.6 °F 29.6 in NNE 4.3 mph 6.9 mph 79 % 0 in
21:51 68.4 °F 62.6 °F 29.6 in NE 3.8 mph 6.9 mph 79 % 0 in
21:56 68.2 °F 60.8 °F 29.6 in ESE 6 mph 6.3 mph 79 % 0 in
22:01 68.2 °F 62.6 °F 29.6 in NNE 5.4 mph 6 mph 80 % 0 in
22:06 68.2 °F 62.6 °F 29.6 in ENE 6 mph 6 mph 80 % 0 in
22:11 68.2 °F 62.6 °F 29.6 in ENE 2.9 mph 7.2 mph 80 % 0 in
22:16 68 °F 62.6 °F 29.6 in NE 3.4 mph 6.7 mph 80 % 0 in
22:21 68 °F 62.6 °F 29.6 in NNE 2.9 mph 5.8 mph 80 % 0 in
22:26 68 °F 62.6 °F 29.6 in ENE 1.3 mph 8.1 mph 80 % 0 in
22:31 68 °F 62.6 °F 29.5 in ENE 3.4 mph 7.4 mph 81 % 0 in
22:36 67.8 °F 62.6 °F 29.5 in ESE 4 mph 7.4 mph 81 % 0 in
22:41 67.6 °F 62.6 °F 29.5 in ENE 0.9 mph 5.6 mph 82 % 0 in
22:46 67.5 °F 62.6 °F 29.5 in NNE 2.7 mph 6.5 mph 82 % 0 in
22:52 67.3 °F 62.6 °F 29.5 in ENE 2.2 mph 6.5 mph 82 % 0 in
22:57 67.3 °F 62.6 °F 29.5 in NE 3.8 mph 6.9 mph 83 % 0 in
23:02 67.3 °F 62.6 °F 29.5 in East 6 mph 6.9 mph 83 % 0 in
23:07 67.3 °F 62.6 °F 29.5 in ENE 2.7 mph 6 mph 83 % 0 in
23:12 67.3 °F 62.6 °F 29.5 in East 1.1 mph 5.8 mph 84 % 0 in
23:17 67.3 °F 62.6 °F 29.5 in Calm   5.6 mph 83 % 0 in
23:22 67.1 °F 62.6 °F 29.5 in Calm   5.4 mph 84 % 0 in
23:27 67.1 °F 62.6 °F 29.5 in NE 2.7 mph 5.4 mph 85 % 0 in
23:32 66.9 °F 62.6 °F 29.5 in Calm   4.3 mph 85 % 0 in
23:37 66.7 °F 62.6 °F 29.5 in ENE 0.9 mph 3.8 mph 86 % 0 in
23:42 66.6 °F 62.6 °F 29.5 in Calm   3.8 mph 86 % 0 in
23:47 66.6 °F 62.6 °F 29.5 in Calm   3.8 mph 87 % 0 in
23:52 66.4 °F 62.6 °F 29.5 in Calm   4 mph 87 % 0 in
23:57 66.4 °F 62.6 °F 29.5 in Calm   4 mph 88 % 0 in
Le Gheer Warneton
Courtoisie de Weather Underground - 2.25 mb

Mise a jour : 18/12/2017 17:42:12
Généré par Cumulus 1.9.4 (1099)